Weather in Erken-Yurt

Russia / Karachay-Cherkess Republic     44°26′51″N   41°54′55″E
В апреле 2022 года жителям России запретили посещать сайт meteo.paraplan.net по решению Генеральной прокуратуры. Аудитория сайта уменьшилась в 10 раз. Владельцы сайта не видят смысла в поддержке погодного сервера в таких условиях. Сайт будет закрыт в октябре.
temp.,
°C
wind,
m/s
gust,
m/s
humid.,
%
clouds,
%
prec.,
mm/h
press.,
hPa
HPBL,
m
30 september, fri
fri3000:00+16s118434 0.0 101723
03:00+15s22890 0.0 101819
06:00+14s22893 0.0 101820
09:00+18sse22700 0.0 1019296
12:00+23ene11550 0.0 1018883
15:00+25nne11440 0.0 10181309
18:00+20nw22553 0.0 101912
21:00+19ene0060100 0.0 102011
1 october, sat
sat100:00+17ssw22673 0.0 102014
03:00+15ssw22740 0.0 102117
06:00+15s22770 0.0 102222
09:00+19ssw12570 0.0 1022241
12:00+24nne11472 0.0 1021767
15:00+25n11430 0.0 10201438
18:00+21n11525 0.0 102011
21:00+19se11565 0.0 102011
2 october, sun
sun200:00+17s22675 0.0 101919
03:00+15s227038 0.0 101822
06:00+15sse227035 0.0 101724
09:00+19se2359100 0.0 1015231
12:00+24ese4544100 0.0 10121025
15:00+25e4440100 0.0 10101240
18:00+20e3652100 0.0 100997
21:00+18se3354100 0.0 100751
3 october, mon
mon300:00+17sse2261100 0.0 100626
03:00+16sse2266100 0.0 100518
06:00+16w2259100 0.0 100639
09:00+17wnw3875100 0.1 1008449
12:00+18nnw3479100 0.1 1009556
15:00+17nw5681100 0.8 1011695
18:00+14nnw2697100 8.9 1013382
21:00+13wnw4795100 11.8 1015428
4 october, tue
tue400:00+12wnw2493100 9.1 1016349
03:00+11nnw1393100 18.4 1017350
06:00+11wsw1190100 2.9 1018182
09:00+11nnw0192100 6.1 1020218
12:00+12ne2288100 2.2 1020309
15:00+12ese2286100 2.6 1021347
18:00+12e2389100 0.0 1021153
21:00+11ene2392100 0.0 1021160